Weather History for Meacham, OR

Change the Weather History Date:

Friday, February 15, 2013

  Actual Average Record
Temperature  
Mean Temperature 34 °F -  
Max Temperature 48 °F 37 °F 55 °F (1997)
Min Temperature 21 °F 20 °F -5 °F (2005)
Degree Days  
Heating Degree Days 30    
Moisture  
Dew Point 27 °F    
Average Humidity 74    
Maximum Humidity 93    
Minimum Humidity 48    
Precipitation  
Precipitation 0.00 in - - ()
Sea Level Pressure  
Sea Level Pressure 30.44 in    
Wind  
Wind Speed 0 mph (North)    
Max Wind Speed 0 mph    
Max Gust Speed -    
Visibility 10 miles    
Events      
Averages and records for this station are not official NWS values.
T = Trace of Precipitation, MM = Missing Value Source: NWS Daily Summary

Daily Weather History Graph

Daily Weather History Graph

Search for Another Location

Airport:

Trip Planner

Search our weather history database for the weather conditions in past years. The results will help you decide how hot, cold, wet, or windy it might be!

Date:

Astronomy

Feb. 15, 2013 Rise Set
Actual Time 6:54 AM PST 5:21 PM PST
Civil Twilight 6:24 AM PST 5:51 PM PST
Nautical Twilight 5:49 AM PST 6:26 PM PST
Astronomical Twilight 5:15 AM PST 7:00 PM PST
Moon 9:14 AM PST (2/15) 11:48 PM PST (2/15)
Length of Visible Light 11h 27m
Length of Day
10h 26m
Waxing Crescent, 31% of the Moon is Illuminated
Feb 15
Waxing Crescent
Feb 17
First Quarter
Feb 25
Full
Mar 4
Last Quarter
Mar 11
New

Hourly Weather History & Observations

Time (PST) Temp. Dew Point Humidity Pressure Visibility Wind Dir Wind Speed Gust Speed Precip Events Conditions
12:17 AM 28.4 °F 26.6 °F 93% 30.48 in 10.0 mi Calm Calm - N/A   Mostly Cloudy
12:37 AM 28.4 °F 26.6 °F 93% 30.47 in 10.0 mi Calm Calm - N/A   Scattered Clouds
12:56 AM 28.0 °F 25.0 °F 88% 30.54 in 10.0 mi Calm Calm - N/A   Clear
1:56 AM 27.0 °F 24.1 °F 89% 30.54 in 10.0 mi Calm Calm - N/A   Clear
2:56 AM 25.0 °F 23.0 °F 92% 30.53 in 10.0 mi Calm Calm - N/A   Clear
3:56 AM 24.1 °F 21.0 °F 88% 30.52 in 10.0 mi Calm Calm - N/A   Clear
4:56 AM 23.0 °F 19.9 °F 88% 30.53 in 10.0 mi Calm Calm - N/A   Clear
5:56 AM 21.0 °F 19.0 °F 92% 30.53 in 10.0 mi Calm Calm - N/A   Clear
6:56 AM 21.0 °F 18.0 °F 88% 30.54 in 10.0 mi Calm Calm - N/A   Clear
7:56 AM 21.9 °F 19.0 °F 89% 30.55 in 10.0 mi Calm Calm - N/A   Clear
8:56 AM 28.9 °F 26.1 °F 89% 30.54 in 10.0 mi Calm Calm - N/A   Clear
9:56 AM 41.0 °F 32.0 °F 70% 30.51 in 10.0 mi Calm Calm - N/A   Clear
10:56 AM 46.0 °F 30.0 °F 54% 30.48 in 10.0 mi Calm Calm - N/A   Clear
11:56 AM 46.9 °F 30.0 °F 52% 30.46 in 10.0 mi Calm Calm - N/A   Clear
12:56 PM 48.9 °F 30.0 °F 48% 30.43 in 10.0 mi Calm Calm - N/A   Clear
1:56 PM 48.9 °F 30.0 °F 48% 30.41 in 10.0 mi Calm Calm - N/A   Clear
2:56 PM 48.0 °F 30.9 °F 52% 30.39 in 10.0 mi Calm Calm - N/A   Clear
3:56 PM 46.9 °F 28.9 °F 50% 30.38 in 10.0 mi Calm Calm - N/A   Clear
4:56 PM 44.1 °F 28.9 °F 55% 30.37 in 10.0 mi Calm Calm - N/A   Clear
5:56 PM 42.1 °F 28.9 °F 60% 30.37 in 10.0 mi Calm Calm - N/A   Clear
6:56 PM 37.9 °F 30.0 °F 73% 30.37 in 10.0 mi Calm Calm - N/A   Clear
7:56 PM 37.9 °F 30.0 °F 73% 30.35 in 10.0 mi Calm Calm - N/A   Clear
8:56 PM 37.9 °F 30.0 °F 73% 30.32 in 10.0 mi Calm Calm - N/A   Clear
9:56 PM 36.0 °F 30.0 °F 79% 30.30 in 10.0 mi Calm Calm - N/A   Clear
10:56 PM 36.0 °F 30.0 °F 79% 30.28 in 10.0 mi Calm Calm - N/A   Clear
11:56 PM 34.0 °F 28.9 °F 82% 30.28 in 10.0 mi Calm Calm - N/A   Clear